Change the Weather History Date:

Saturday, February 16, 2013

  Actual Average Record
Temperature  
Mean Temperature 22 °F -  
Max Temperature 27 °F 31 °F 55 °F (2006)
Min Temperature 17 °F 19 °F -7 °F (2015)
Degree Days  
Heating Degree Days 43    
Moisture  
Dew Point 15 °F    
Average Humidity 75    
Maximum Humidity 93    
Minimum Humidity 51    
Precipitation  
Precipitation 0.04 in - - ()
Sea Level Pressure  
Sea Level Pressure 30.03 in    
Wind  
Wind Speed 5 mph (NW)    
Max Wind Speed 12 mph    
Max Gust Speed 18 mph    
Visibility 7 miles    
Events Snow    
Averages and records for this station are not official NWS values.
T = Trace of Precipitation, MM = Missing Value Source: NWS Daily Summary

Daily Weather History Graph

Daily Weather History Graph

Search for Another Location

Airport or City:

Trip Planner

Search our weather history database for the weather conditions in past years. The results will help you decide how hot, cold, wet, or windy it might be!

Date:

Astronomy

Feb. 16, 2013 Rise Set
Actual Time 7:26 AM EST 6:05 PM EST
Civil Twilight 6:58 AM EST 6:34 PM EST
Nautical Twilight 6:25 AM EST 7:07 PM EST
Astronomical Twilight 5:52 AM EST 7:40 PM EST
Moon 10:30 AM EST (2/16) 12:13 AM EST (2/16)
Length of Visible Light 11h 36m
Length of Day
10h 39m
Waxing Crescent, 39% of the Moon is Illuminated
Feb 16
Waxing Crescent
Feb 17
First Quarter
Feb 25
Full
Mar 4
Last Quarter
Mar 11
New

Hourly Weather History & Observations

Time (EST) Temp. Windchill Dew Point Humidity Pressure Visibility Wind Dir Wind Speed Gust Speed Precip Events Conditions
12:53 AM 23.0 °F 13.9 °F 17.1 °F 78% 30.11 in 10.0 mi NW 8.1 mph - 0.00 in   Overcast
1:53 AM 24.1 °F 18.2 °F 12.9 °F 62% 30.10 in 10.0 mi NW 4.6 mph - N/A   Overcast
2:53 AM 21.9 °F - 12.9 °F 68% 30.09 in 10.0 mi Calm Calm - N/A   Clear
3:53 AM 21.0 °F 14.6 °F 12.0 °F 68% 30.09 in 10.0 mi WNW 4.6 mph - N/A   Clear
4:53 AM 19.9 °F 14.9 °F 12.0 °F 71% 30.10 in 10.0 mi West 3.5 mph - N/A   Clear
5:53 AM 19.0 °F 13.9 °F 12.0 °F 74% 30.08 in 10.0 mi WNW 3.5 mph - N/A   Mostly Cloudy
6:53 AM 19.9 °F - 12.0 °F 71% 30.06 in 10.0 mi Calm Calm - N/A   Overcast
7:53 AM 19.9 °F - 12.0 °F 71% 30.06 in 10.0 mi Calm Calm - N/A   Overcast
8:53 AM 21.9 °F - 12.9 °F 68% 30.09 in 10.0 mi Calm Calm - N/A   Overcast
9:53 AM 24.1 °F - 12.0 °F 60% 30.06 in 10.0 mi Calm Calm - N/A   Overcast
10:53 AM 26.1 °F 19.4 °F 10.0 °F 51% 30.05 in 10.0 mi WSW 5.8 mph - N/A   Overcast
11:53 AM 26.1 °F 21.9 °F 10.9 °F 53% 30.04 in 10.0 mi West 3.5 mph - N/A   Overcast
12:22 PM 24.8 °F 19.1 °F 14.0 °F 64% 30.01 in 10.0 mi WSW 4.6 mph - N/A   Overcast
12:53 PM 27.0 °F - 14.0 °F 58% 30.03 in 10.0 mi Calm Calm - N/A   Overcast
1:03 PM 26.6 °F 22.6 °F 12.2 °F 55% 29.98 in 10.0 mi NE 3.5 mph - N/A   Overcast
1:32 PM 24.8 °F 16.9 °F 17.6 °F 74% 29.98 in 10.0 mi ENE 6.9 mph - N/A   Overcast
1:43 PM 24.8 °F 19.1 °F 17.6 °F 74% 29.98 in 1.8 mi NE 4.6 mph - 0.00 in Snow Light Snow
1:48 PM 23.0 °F - 19.4 °F 86% 29.98 in 0.8 mi Calm Calm - 0.00 in Snow Light Snow
1:53 PM 23.0 °F 17.0 °F 19.9 °F 88% 30.00 in 0.8 mi NNE 4.6 mph - 0.00 in Snow Light Snow
2:50 PM 23.0 °F 18.4 °F 21.2 °F 93% 29.97 in 0.8 mi ESE 3.5 mph - 0.02 in Snow Light Snow
2:53 PM 23.0 °F - 21.0 °F 92% 30.00 in 0.8 mi Calm Calm - 0.02 in Snow Light Snow
3:39 PM 23.0 °F 15.8 °F 19.4 °F 86% 29.97 in 1.0 mi WNW 5.8 mph - 0.01 in Snow Light Snow
3:53 PM 23.0 °F 12.4 °F 19.0 °F 85% 30.01 in 1.2 mi NW 10.4 mph - 0.01 in Snow Light Snow
4:06 PM 23.0 °F 15.8 °F 19.4 °F 86% 29.98 in 1.5 mi NW 5.8 mph - 0.01 in Snow Light Snow
4:34 PM 23.0 °F 14.7 °F 17.6 °F 80% 29.98 in 3.0 mi NW 6.9 mph - 0.01 in Snow Light Snow
4:53 PM 23.0 °F 17.0 °F 18.0 °F 81% 30.01 in 6.0 mi NNW 4.6 mph - 0.01 in Snow Light Snow
5:11 PM 23.0 °F 15.8 °F 19.4 °F 86% 29.98 in 2.5 mi NNE 5.8 mph - 0.00 in Snow Light Snow
5:21 PM 23.0 °F 18.4 °F 19.4 °F 86% 29.99 in 4.0 mi North 3.5 mph - 0.00 in Snow Light Snow
5:32 PM 23.0 °F 11.7 °F 17.6 °F 80% 29.99 in 2.0 mi NW 11.5 mph 16.1 mph 0.00 in Snow Light Snow
5:43 PM 23.0 °F 13.9 °F 15.8 °F 74% 29.99 in 6.0 mi NW 8.1 mph 16.1 mph 0.00 in Snow Light Snow
5:53 PM 23.0 °F 12.4 °F 16.0 °F 74% 30.03 in 8.0 mi NW 10.4 mph - 0.00 in   Overcast
6:25 PM 21.2 °F 10.1 °F 15.8 °F 80% 30.01 in 7.0 mi NNW 10.4 mph - 0.00 in Snow Light Snow
6:35 PM 21.2 °F 11.7 °F 17.6 °F 86% 30.01 in 2.5 mi NW 8.1 mph 18.4 mph 0.00 in Snow Light Snow
6:41 PM 21.2 °F 12.6 °F 17.6 °F 86% 30.01 in 3.0 mi NW 6.9 mph - 0.00 in Snow Light Snow
6:53 PM 21.9 °F 12.5 °F 14.0 °F 72% 30.05 in 9.0 mi NNW 8.1 mph - 0.00 in   Overcast
7:53 PM 21.0 °F 11.4 °F 12.0 °F 68% 30.06 in 10.0 mi NW 8.1 mph - N/A   Overcast
8:53 PM 19.9 °F 14.9 °F 10.9 °F 68% 30.06 in 10.0 mi NW 3.5 mph - N/A   Overcast
9:04 PM 19.4 °F 14.3 °F 10.4 °F 68% 30.03 in 10.0 mi NW 3.5 mph - N/A   Overcast
9:53 PM 18.0 °F 11.1 °F 10.9 °F 74% 30.07 in 10.0 mi WNW 4.6 mph - N/A   Overcast
10:53 PM 17.1 °F 10.0 °F 12.0 °F 81% 30.06 in 10.0 mi WNW 4.6 mph - N/A   Mostly Cloudy
11:00 PM 17.6 °F 9.3 °F 12.2 °F 79% 30.03 in 10.0 mi WNW 5.8 mph - N/A   Mostly Cloudy
11:09 PM 17.6 °F 9.3 °F 12.2 °F 79% 30.03 in 10.0 mi WNW 5.8 mph - N/A   Mostly Cloudy
11:53 PM 17.1 °F 8.7 °F 10.9 °F 77% 30.06 in 10.0 mi NW 5.8 mph - N/A   Overcast